Location: Unspecified
(0.0000°N, 0.0000°E)
Time: 21:11:53
(UTC+00:00)

SKYSAT 2 - Visible Passes

Search period start: 22 January 2022 00:00
Search period end: 01 February 2022 00:00
Orbit: 619 x 630 km, 98.4° (Epoch: 22 January)

Date Brightness Start Highest point End Pass type
(mag) Time Alt. Az. Time Alt. Az. Time Alt. Az.
22 Jan ? 19:08:17 13° ESE 19:08:17 13° ESE 19:09:45 10° SE visible
22 Jan ? 20:45:33 20° WSW 20:45:33 20° WSW 20:47:21 10° SW visible
23 Jan ? 19:27:09 22° ESE 19:27:09 22° ESE 19:29:50 10° SSE visible
23 Jan ? 21:04:25 11° WSW 21:04:25 11° WSW 21:04:42 10° WSW visible
24 Jan ? 19:46:01 35° SE 19:46:01 35° SE 19:49:04 10° S visible
25 Jan ? 20:04:53 43° S 20:04:53 43° S 20:07:53 10° S visible
26 Jan ? 20:23:45 34° SW 20:23:45 34° SW 20:26:22 10° SSW visible
27 Jan ? 19:05:22 11° ESE 19:05:22 11° ESE 19:05:58 10° ESE visible
27 Jan ? 20:42:37 21° WSW 20:42:37 21° WSW 20:44:29 10° SW visible
28 Jan ? 19:24:14 19° ESE 19:24:14 19° ESE 19:26:33 10° SSE visible
28 Jan ? 21:01:29 12° WSW 21:01:29 12° WSW 21:02:03 10° WSW visible
29 Jan ? 19:43:07 30° SE 19:43:07 30° SE 19:45:55 10° SSE visible
30 Jan ? 20:02:00 38° S 20:02:00 38° S 20:04:49 10° S visible
31 Jan ? 20:20:52 33° SSW 20:20:52 33° SSW 20:23:22 10° SSW visible
